Temperature
12 12 13 13 16 17 19 21 21 21 21 21 21 22 23 24 25 25 22 22 21 21 20 19 19 18 18 18 17 17 17 17 17 17 17 17 16 16 16 16 16 15 15 15 15 15 15 15 15
11 12 12 14 16 17 19 21 21 21 21 20 20 21 22 23 23 23 21 22 21 20 19 18 18 18 17 17 17 17 17 17 17 17 17 16 16 16 16 15 15 15 15 15 15 15 14 14 14
11 11 13 15 16 18 20 21 21 21 20 20 20 21 22 23 22 21 21 21 20 19 18 18 17 17 17 17 17 17 17 17 17 16 16 16 16 16 15 15 15 15 15 15 14 14 14 14 14
10 11 13 14 16 18 20 21 20 20 20 19 20 21 21 20 20 20 21 21 20 19 18 17 17 17 16 16 17 17 17 17 16 16 16 16 16 15 15 15 15 15 15 14 14 14 13 13 13
10 12 14 14 16 18 20 20 19 20 20 20 19 21 21 20 20 20 20 20 19 18 17 17 17 16 16 16 16 16 16 16 16 16 16 16 15 15 15 15 15 14 14 14 14 13 13 13 13
11 12 13 15 17 18 19 19 18 19 20 19 19 20 20 19 19 19 19 19 18 17 17 16 16 16 16 16 16 16 16 16 16 16 16 15 15 15 15 15 14 14 14 13 13 13 13 12 12
11 12 13 15 16 17 18 18 18 18 19 19 19 20 20 19 18 18 18 17 16 16 16 16 16 16 16 16 16 16 16 16 16 15 15 15 15 15 14 14 14 14 13 13 13 12 12 12 12
10 11 12 14 15 16 17 17 16 17 17 17 17 18 19 18 17 17 16 16 15 15 15 16 16 16 16 16 16 16 16 15 15 15 15 15 14 14 14 14 13 13 13 12 12 12 12 12 12
9 10 11 13 14 15 16 15 15 15 15 16 16 17 17 16 16 15 15 15 15 15 15 15 15 16 16 15 15 15 15 15 15 15 14 14 14 13 13 13 13 12 12 12 12 12 12 12 12
9 10 11 13 14 14 14 14 13 14 15 15 15 15 15 15 15 15 15 15 15 15 15 15 15 15 15 15 15 15 15 15 14 14 14 14 13 13 12 12 12 12 12 12 11 11 11 11 11
9 10 11 12 12 12 12 12 12 12 13 14 15 15 14 14 14 14 15 15 15 15 15 15 15 15 15 15 15 15 15 14 14 14 14 13 13 13 12 12 11 11 11 11 11 11 11 10 11
8 9 10 10 10 10 10 11 11 11 12 13 13 13 13 13 13 14 14 15 15 15 15 15 15 15 15 15 15 15 15 14 14 14 13 13 13 12 12 12 11 11 11 11 11 11 11 10 10
8 8 8 8 8 9 9 10 10 11 11 11 11 12 12 13 13 13 13 14 14 14 14 15 15 15 15 15 15 15 14 14 14 14 13 13 13 13 12 12 11 11 11 11 11 11 10 10 10
7 7 8 8 8 8 9 10 10 11 11 11 11 12 12 12 12 12 13 13 14 14 14 14 14 15 15 15 15 14 14 14 14 14 13 13 13 13 12 12 11 11 11 11 11 10 10 10 10
6 6 8 8 9 9 9 9 10 11 11 11 11 12 12 12 12 12 12 13 13 14 14 14 14 14 15 15 15 14 14 14 14 14 13 13 13 13 12 12 11 11 11 11 10 10 10 10 10
6 6 7 9 9 9 8 8 11 11 10 11 11 11 11 11 12 12 12 13 13 13 13 14 14 14 14 14 14 14 14 14 14 14 13 13 13 12 12 12 12 11 11 11 10 10 10 10 9
6 6 7 8 9 9 8 8 11 10 10 10 11 11 11 11 11 12 12 12 13 13 13 13 14 14 14 14 14 14 14 14 14 13 13 13 12 12 12 12 11 11 11 11 10 10 10 9 9
6 6 7 7 9 8 7 8 10 10 10 10 11 11 11 11 11 12 12 12 12 13 13 13 13 13 14 14 14 14 14 14 13 13 13 13 12 12 12 12 11 11 11 11 10 10 10 9 9
5 5 6 7 8 7 7 8 10 10 10 11 11 11 11 11 11 11 11 12 12 12 13 13 13 13 13 13 13 13 13 13 13 13 13 13 12 12 12 12 11 11 11 11 10 10 9 9 9
5 5 6 7 8 7 7 8 10 10 10 10 10 11 10 10 11 10 11 11 11 12 12 13 13 13 13 13 13 13 13 13 13 13 13 12 12 12 12 12 11 11 11 10 10 10 9 9 9
5 5 6 6 7 7 7 8 9 11 10 10 10 10 10 10 10 10 11 11 11 11 12 12 13 13 13 13 13 13 13 13 13 13 13 12 12 12 12 12 11 11 11 11 10 10 10 9 9
5 6 6 5 5 6 6 6 9 10 10 10 10 10 9 9 9 10 10 10 11 11 12 12 12 13 13 13 13 13 13 12 12 13 12 12 12 12 12 12 12 11 11 11 11 10 10 9 9
5 6 5 5 5 5 6 6 8 9 8 9 9 9 9 9 9 9 9 10 10 11 11 12 12 12 12 12 12 12 12 12 12 12 12 12 12 12 12 12 11 11 11 11 11 10 10 10 9
5 5 6 6 5 5 7 6 8 8 7 8 8 8 8 8 8 9 9 9 10 10 11 11 11 12 12 12 12 12 12 12 12 12 12 12 12 12 12 12 12 11 11 11 11 11 10 10 9
5 4 5 5 5 6 8 7 7 7 7 7 7 7 7 7 7 8 8 9 9 10 10 10 11 11 12 12 12 12 12 12 12 12 12 12 12 12 12 12 12 12 11 11 11 11 10 10 10
4 4 4 4 5 7 7 7 7 6 6 6 6 6 6 6 6 6 7 8 9 9 10 10 11 11 11 12 12 12 12 12 12 12 12 12 12 12 12 12 12 12 11 11 11 11 10 10 10
4 4 4 3 4 5 6 7 7 6 6 6 6 5 5 5 5 6 6 7 8 9 9 10 10 11 11 11 12 12 12 12 12 12 12 12 12 12 12 12 12 12 12 11 11 11 10 10 10
4 4 3 3 3 5 6 6 5 5 5 5 5 5 5 4 4 5 5 6 7 8 8 9 10 10 11 11 11 11 12 12 12 12 12 12 12 12 12 12 12 12 12 11 11 11 10 10 10
3 3 3 3 3 3 4 5 5 4 4 4 4 4 4 4 4 4 4 5 6 7 8 9 9 10 10 11 11 11 12 12 12 12 12 12 12 12 12 12 12 12 12 11 11 11 11 10 10
2 2 2 2 2 3 3 4 5 4 4 4 4 3 3 3 3 3 3 4 5 6 7 8 9 9 10 10 11 11 11 11 11 12 12 12 12 12 12 12 12 12 12 12 11 11 11 10 10
Wind_Speed
6 4 4 4 7 11 23 19 14 11 10 11 10 9 10 14 11 4 3 4 9 15 21 26 25 25 25 25 24 24 24 24 23 23 22 22 21 21 21 20 19 19 18 18 18 18 18 18 17
4 4 5 6 11 19 20 20 21 18 11 6 10 12 13 13 12 6 1 5 10 15 20 25 26 25 25 25 24 24 24 24 24 23 23 22 22 21 20 20 19 19 19 19 19 19 18 17 17
4 6 6 7 16 25 22 11 14 16 14 11 9 10 12 10 8 6 1 6 11 15 19 23 25 26 26 25 25 25 25 24 24 23 23 22 22 21 20 20 20 19 19 19 19 18 18 17 17
3 5 7 14 28 28 24 15 8 11 12 14 12 9 8 7 4 3 0 7 11 15 19 23 26 26 26 26 25 26 25 24 24 24 23 22 22 21 20 20 20 20 19 19 19 18 17 17 16
4 6 12 21 33 28 22 20 15 15 13 12 14 15 14 6 4 4 3 8 12 15 17 23 26 26 26 26 26 26 25 24 24 24 23 22 21 21 21 20 20 20 19 19 19 18 17 16 16
5 7 15 26 31 27 23 20 19 20 18 15 13 18 17 9 6 5 4 8 12 15 17 21 25 26 26 26 26 26 26 25 24 24 23 22 22 22 21 21 20 20 19 19 18 17 17 16 15
8 11 22 27 27 26 22 18 20 21 22 19 14 17 16 11 6 5 5 8 10 13 16 18 24 26 25 25 26 26 26 25 24 24 23 22 22 21 21 21 20 19 19 18 18 17 16 15 14
7 8 20 25 26 27 20 18 18 20 22 18 16 16 15 8 3 3 5 8 10 13 16 18 21 24 25 25 25 26 25 25 24 23 23 22 22 21 21 20 19 19 18 18 17 16 16 15 14
6 11 21 25 23 21 17 18 17 16 19 19 18 20 15 9 6 5 6 8 11 13 15 17 19 20 22 23 25 25 25 24 24 22 23 22 19 19 19 18 19 19 18 17 17 16 16 14 13
8 15 23 21 20 21 19 19 18 17 22 22 20 19 15 12 10 11 10 12 14 16 18 17 19 19 20 19 21 22 22 23 22 21 22 19 17 16 16 19 18 18 18 17 16 16 15 12 11
9 16 19 19 19 19 21 21 18 20 24 24 22 20 16 15 15 15 16 15 16 18 18 18 19 18 18 15 16 14 15 18 19 21 21 17 16 15 15 15 16 16 17 15 15 14 10 9 8
12 17 19 19 18 19 21 21 21 23 25 23 22 20 18 17 17 17 17 17 16 17 19 19 19 18 17 16 15 14 13 13 13 18 20 16 11 12 12 11 13 13 12 12 11 9 10 9 9
16 18 19 19 19 20 22 23 24 26 24 22 22 20 20 21 20 19 18 18 18 18 19 19 19 19 17 15 14 14 14 14 15 16 19 17 12 12 12 11 11 12 12 11 10 9 9 9 8
12 16 19 19 20 19 21 24 24 25 22 21 22 22 21 21 20 19 19 19 19 19 19 19 20 19 18 16 15 14 15 15 15 15 18 19 15 13 12 11 10 11 12 11 10 10 9 7 7
12 17 19 18 18 16 17 22 23 21 19 21 22 21 21 20 20 20 20 19 19 20 19 20 20 19 19 18 17 14 14 15 14 14 18 19 17 15 13 11 11 11 12 12 10 10 8 6 7
11 12 12 12 12 13 13 22 21 16 17 20 21 20 20 20 20 19 20 19 19 19 20 20 18 19 19 17 16 13 15 15 14 15 16 19 19 18 14 11 11 12 12 11 9 9 8 7 7
7 10 16 17 11 12 13 20 20 17 19 21 21 20 19 20 19 19 18 19 18 19 20 20 20 21 19 17 15 14 15 15 14 15 15 17 19 19 15 12 11 14 11 10 9 9 8 8 7
12 15 17 18 14 15 18 23 23 20 20 22 21 20 19 20 20 17 17 18 17 18 19 20 20 21 19 15 13 11 13 13 13 14 15 18 18 19 15 12 13 14 11 10 10 10 9 7 7
16 18 21 22 18 17 20 24 23 20 18 20 20 19 18 18 17 15 15 14 15 17 18 19 20 20 17 14 14 14 13 14 13 13 17 19 19 19 16 12 14 13 12 12 12 10 11 8 7
16 18 20 19 15 16 20 24 22 19 18 17 18 17 16 15 14 13 13 13 13 15 17 19 20 20 19 16 15 14 13 12 13 13 15 19 19 19 16 15 14 14 12 13 13 11 9 8 8
15 15 17 19 21 15 16 17 16 13 12 13 14 14 14 14 14 13 12 12 12 13 15 16 19 20 20 18 14 13 11 10 11 14 14 17 19 19 18 17 15 15 13 13 14 14 13 10 9
14 12 16 18 16 11 9 11 13 11 10 10 10 10 10 11 12 12 11 12 12 12 12 15 17 19 19 19 17 18 15 14 13 14 14 17 19 19 19 18 17 16 14 14 14 14 12 12 10
10 15 17 17 15 14 12 10 10 8 10 10 9 8 8 8 9 10 10 10 10 10 10 12 15 17 19 19 20 20 18 15 12 14 17 17 17 18 19 18 17 16 14 15 15 15 14 12 11
11 13 14 11 8 8 9 8 8 6 9 10 9 8 8 7 7 8 8 8 7 7 8 10 14 16 18 20 21 21 21 18 17 17 17 16 14 15 19 18 17 16 14 15 15 15 16 13 13
7 8 5 3 4 6 5 6 5 8 10 10 9 9 9 8 7 6 7 7 6 6 7 9 12 14 16 18 20 21 21 20 20 19 18 17 14 14 19 18 17 16 15 15 15 15 15 15 15
7 5 5 6 6 9 7 6 3 7 9 10 9 9 10 10 8 7 6 6 6 6 6 8 11 12 14 16 18 19 20 17 16 19 17 18 15 16 19 20 19 18 17 16 15 14 15 14 15
5 4 5 6 9 8 6 5 4 8 11 12 13 12 12 12 11 9 7 7 6 6 6 8 10 11 13 15 16 17 18 18 17 18 18 16 16 15 19 20 19 19 18 18 16 14 16 14 15
5 5 4 4 5 7 7 6 7 12 14 14 15 14 13 12 12 11 9 8 7 7 6 6 8 10 12 14 14 14 17 18 17 16 18 18 18 17 18 19 19 19 19 18 17 14 15 15 14
4 3 4 5 5 6 7 5 5 8 12 13 14 14 13 13 12 11 10 9 8 7 6 4 5 7 9 11 13 14 15 17 17 17 18 17 17 18 19 19 19 19 19 18 17 16 16 16 15
5 5 4 5 6 7 7 6 3 8 11 12 14 14 14 12 11 11 11 10 8 7 6 4 4 5 8 10 11 13 14 15 17 18 18 17 17 17 17 18 19 19 18 18 18 18 17 17 17
Wind_Direction
290 241 212 208 223 232 240 234 232 234 231 228 220 216 225 225 220 230 49 165 173 167 169 170 171 169 167 164 162 158 156 155 153 151 149 146 143 140 138 136 133 130 129 126 123 119 116 113 111
273 208 201 215 229 235 241 238 234 233 230 223 221 228 235 240 240 279 330 167 176 171 170 173 170 170 168 165 162 159 157 155 153 151 149 147 145 142 140 137 135 132 129 127 123 120 118 116 114
251 212 212 219 230 235 239 233 242 240 235 230 227 232 238 239 234 243 20 166 176 175 175 173 170 170 168 165 162 160 157 155 154 152 150 148 146 144 141 138 135 132 129 127 125 123 121 119 117
225 205 224 232 237 236 244 246 246 243 234 231 236 239 229 240 260 277 175 177 180 178 178 173 171 172 169 165 162 160 158 157 156 153 151 149 147 145 142 139 136 133 131 130 128 125 123 122 119
230 220 226 235 242 244 245 252 253 248 239 234 234 243 244 232 256 283 224 192 188 181 180 175 173 172 169 165 163 161 159 158 156 155 152 149 147 144 141 138 137 136 135 133 131 129 127 125 122
222 222 232 240 246 247 247 248 251 252 250 247 246 250 253 248 259 269 234 206 196 185 182 177 174 172 170 167 164 162 160 159 157 155 152 150 147 143 141 140 139 139 138 135 133 132 129 127 125
232 232 241 248 254 253 250 249 247 250 251 249 253 258 255 249 265 264 230 208 199 190 184 180 178 175 170 167 165 163 160 159 157 155 153 150 148 146 145 144 141 141 140 138 136 134 131 129 128
243 245 249 249 254 257 259 256 251 253 257 260 256 255 257 260 279 253 227 209 200 194 190 184 181 179 175 172 166 163 161 159 158 155 152 148 148 148 146 147 144 144 142 141 139 137 134 130 128
237 242 246 247 254 262 267 266 261 263 264 260 256 259 273 288 274 252 227 213 204 198 195 190 185 182 178 175 169 166 162 159 156 155 149 150 155 153 152 148 146 147 144 143 142 139 133 130 128
223 244 251 257 265 272 271 269 273 267 261 258 258 261 266 267 264 249 235 220 210 203 198 193 190 184 179 175 172 172 169 165 166 164 162 163 160 156 153 144 147 146 144 143 141 137 136 142 138
240 251 265 269 271 277 275 270 270 269 262 259 261 266 266 260 258 256 243 228 217 207 202 197 194 188 181 176 173 173 170 170 171 168 166 163 157 152 152 152 149 150 150 148 142 147 154 151 142
256 264 270 273 277 275 273 274 267 260 264 271 270 268 262 259 256 252 250 236 225 215 208 201 196 191 185 179 176 173 171 171 169 169 167 163 158 159 159 159 159 159 159 154 158 158 154 150 151
260 270 274 276 276 275 273 268 268 263 265 270 269 262 256 254 254 254 252 246 230 221 212 206 197 193 187 179 178 176 173 171 169 168 169 166 162 164 162 162 162 163 161 162 161 160 157 157 156
272 278 278 278 277 273 270 270 266 264 263 265 263 258 255 253 251 252 250 246 233 223 216 209 201 194 189 183 179 177 173 170 169 170 172 169 166 166 165 164 165 165 166 167 167 164 161 161 164
280 282 279 270 266 266 274 269 259 263 267 266 263 257 254 253 250 248 248 245 237 225 218 211 204 196 191 185 181 178 173 170 170 171 173 173 171 169 168 167 168 169 168 167 168 163 165 164 167
279 274 276 278 274 271 263 267 267 270 272 271 266 258 254 253 250 248 248 246 239 229 219 213 205 199 194 188 182 178 175 170 170 171 174 176 174 172 170 170 171 170 169 170 170 169 171 173 179
260 275 282 289 283 280 266 272 277 275 271 269 268 262 254 253 251 249 246 245 239 231 221 214 206 200 195 190 185 179 176 171 170 171 174 177 175 174 174 174 172 171 172 175 174 177 179 179 182
297 294 289 287 291 286 277 276 281 279 272 269 266 262 254 252 250 250 246 243 238 232 222 214 207 203 194 188 184 177 176 174 172 174 177 176 177 178 177 175 174 173 175 178 179 178 180 182 179
289 287 288 288 290 290 280 279 280 283 275 268 263 260 253 249 251 250 245 242 236 229 221 214 207 201 193 188 183 179 181 176 175 177 178 178 179 180 180 177 176 178 181 182 182 178 178 181 179
283 284 287 294 300 295 286 282 279 276 272 269 265 259 255 252 251 250 242 240 233 227 220 215 206 200 195 192 187 182 177 179 177 176 180 182 182 182 182 181 180 182 183 184 185 182 182 181 186
287 283 288 294 304 291 289 285 277 275 273 272 269 263 258 251 249 248 243 238 231 228 220 216 208 200 196 192 187 178 170 171 180 181 182 186 186 184 184 185 184 184 186 187 188 187 188 186 191
293 293 292 292 297 295 296 294 289 292 294 296 291 280 266 260 252 250 248 241 232 230 225 221 211 202 195 191 190 183 183 184 189 186 184 186 189 188 187 188 188 187 190 190 191 193 195 192 191
289 300 292 284 284 284 276 272 286 301 301 305 304 297 285 277 263 257 250 246 239 233 227 223 211 204 196 192 194 191 192 191 185 186 185 187 190 191 190 190 190 191 193 193 192 194 197 199 200
297 299 289 270 265 268 269 260 293 319 313 315 318 321 313 301 285 268 258 248 243 236 232 227 210 206 199 196 196 197 194 191 185 188 186 187 189 191 193 191 192 194 195 196 195 196 200 202 205
321 320 307 282 250 268 288 266 287 331 336 330 329 333 335 334 322 301 287 262 246 237 234 228 212 207 203 201 201 201 198 193 192 190 190 188 190 192 194 192 194 196 197 197 196 198 202 205 207
308 304 304 304 296 303 294 266 309 348 348 348 349 348 347 344 338 330 316 299 270 252 242 231 215 210 207 204 204 203 203 199 196 194 193 193 195 195 193 193 196 197 196 197 197 199 202 206 208
307 307 296 284 283 280 276 283 311 353 358 360 359 355 351 349 344 334 323 314 298 279 254 235 219 212 210 208 205 204 203 202 200 196 197 198 198 195 194 194 196 197 197 197 197 202 203 205 209
280 298 293 291 299 290 287 301 330 348 352 352 351 349 347 348 348 343 335 323 313 297 282 245 225 219 216 211 209 206 204 204 201 197 197 198 197 193 193 195 196 197 197 197 199 203 205 206 209
296 286 287 284 284 294 297 305 355 345 344 342 342 344 342 342 344 344 339 331 319 309 295 261 233 228 223 218 214 209 207 206 203 201 199 199 196 195 194 195 196 197 198 198 200 204 203 207 210
259 271 272 283 285 278 282 285 344 342 337 335 335 339 341 345 344 344 343 341 330 316 307 286 252 237 233 226 219 212 208 206 204 203 201 199 197 195 195 194 196 197 199 199 202 204 204 207 210
Height
1507 1509 1511 1514 1512 1502 1485 1476 1477 1479 1480 1480 1481 1481 1478 1476 1477 1478 1475 1472 1472 1473 1476 1478 1481 1485 1489 1493 1496 1500 1503 1506 1509 1511 1514 1516 1518 1520 1522 1523 1525 1527 1528 1529 1530 1531 1531 1532 1532
1506 1508 1512 1510 1502 1490 1476 1473 1475 1476 1478 1480 1480 1480 1477 1474 1474 1474 1472 1471 1472 1473 1475 1477 1481 1485 1488 1492 1496 1499 1502 1505 1508 1511 1514 1516 1518 1520 1522 1524 1525 1527 1528 1529 1530 1531 1532 1532 1533
1504 1506 1508 1502 1489 1475 1466 1467 1471 1473 1477 1478 1477 1476 1474 1472 1473 1473 1470 1470 1471 1473 1475 1477 1480 1484 1488 1491 1495 1499 1502 1505 1508 1511 1513 1516 1518 1520 1522 1524 1525 1527 1528 1529 1530 1531 1532 1533 1533
1504 1505 1503 1495 1474 1465 1467 1467 1473 1473 1474 1476 1475 1473 1471 1472 1471 1470 1469 1469 1470 1472 1474 1477 1480 1483 1487 1491 1494 1498 1501 1504 1507 1510 1513 1516 1518 1520 1522 1524 1525 1527 1528 1530 1531 1532 1533 1533 1534
1502 1500 1495 1482 1466 1464 1466 1469 1472 1472 1471 1472 1473 1469 1467 1469 1467 1467 1467 1467 1469 1471 1473 1475 1479 1483 1486 1490 1493 1497 1501 1504 1507 1510 1513 1515 1518 1520 1521 1523 1525 1527 1528 1529 1531 1532 1533 1534 1535
1499 1495 1485 1469 1460 1462 1465 1469 1471 1470 1468 1470 1470 1466 1464 1466 1465 1465 1465 1466 1467 1469 1471 1474 1477 1481 1486 1489 1493 1496 1500 1503 1506 1509 1512 1515 1517 1519 1521 1523 1525 1526 1528 1529 1531 1532 1533 1534 1535
1496 1489 1475 1465 1460 1459 1462 1467 1468 1468 1466 1466 1467 1464 1461 1464 1463 1463 1463 1464 1465 1467 1470 1472 1476 1480 1484 1488 1492 1495 1499 1502 1505 1509 1511 1514 1516 1518 1520 1522 1524 1526 1528 1529 1531 1532 1533 1535 1536
1492 1488 1474 1466 1462 1458 1462 1465 1466 1466 1463 1465 1465 1461 1459 1462 1461 1460 1461 1462 1463 1465 1468 1470 1474 1478 1482 1486 1490 1494 1498 1501 1505 1508 1511 1513 1516 1518 1520 1522 1524 1526 1527 1529 1531 1532 1534 1535 1536
1491 1486 1469 1463 1462 1460 1463 1464 1464 1465 1463 1462 1461 1459 1460 1459 1458 1458 1458 1459 1461 1463 1465 1468 1471 1475 1479 1483 1488 1492 1496 1500 1503 1507 1509 1512 1515 1517 1519 1521 1523 1525 1527 1529 1531 1532 1534 1535 1536
1486 1477 1465 1464 1464 1462 1462 1463 1463 1463 1459 1457 1457 1456 1457 1456 1456 1456 1456 1456 1457 1459 1462 1465 1468 1471 1475 1480 1484 1489 1493 1497 1501 1504 1507 1511 1514 1516 1518 1520 1523 1525 1527 1529 1530 1532 1533 1535 1536
1479 1471 1466 1466 1465 1465 1462 1461 1462 1460 1454 1453 1453 1452 1453 1453 1452 1452 1452 1453 1454 1456 1458 1461 1464 1468 1471 1475 1480 1485 1489 1494 1498 1502 1505 1509 1512 1514 1517 1519 1522 1524 1526 1528 1530 1532 1534 1535 1536
1477 1471 1468 1465 1466 1464 1462 1459 1457 1454 1451 1451 1450 1449 1448 1448 1447 1448 1448 1449 1451 1452 1454 1457 1460 1463 1467 1471 1476 1480 1485 1490 1494 1498 1502 1506 1509 1512 1515 1517 1520 1522 1525 1527 1529 1531 1533 1534 1536
1473 1469 1467 1464 1463 1461 1459 1455 1451 1447 1447 1447 1445 1443 1443 1442 1443 1443 1444 1444 1446 1448 1450 1453 1455 1459 1463 1467 1472 1476 1481 1486 1490 1495 1499 1502 1506 1509 1512 1515 1518 1521 1523 1525 1528 1530 1532 1534 1535
1471 1468 1464 1461 1459 1457 1454 1448 1445 1439 1441 1440 1438 1437 1436 1437 1437 1438 1438 1439 1440 1442 1445 1448 1451 1454 1458 1462 1467 1472 1476 1482 1487 1491 1496 1500 1503 1507 1510 1513 1516 1518 1521 1524 1527 1529 1531 1533 1535
1470 1466 1459 1454 1452 1450 1449 1440 1435 1433 1434 1433 1431 1430 1429 1430 1431 1431 1432 1433 1434 1437 1440 1443 1446 1450 1454 1458 1463 1467 1472 1477 1482 1488 1492 1497 1500 1504 1507 1511 1513 1516 1519 1522 1525 1528 1530 1532 1534
1467 1462 1453 1446 1446 1444 1447 1432 1427 1429 1429 1426 1425 1423 1423 1423 1424 1425 1426 1427 1429 1431 1434 1437 1441 1445 1449 1453 1458 1462 1467 1472 1478 1484 1489 1493 1497 1501 1505 1508 1511 1514 1517 1520 1523 1525 1528 1530 1532
1460 1455 1447 1441 1440 1440 1439 1428 1423 1424 1423 1420 1418 1416 1416 1416 1417 1418 1420 1421 1423 1425 1428 1431 1435 1439 1444 1449 1454 1458 1462 1467 1473 1479 1485 1489 1494 1498 1502 1505 1508 1511 1514 1517 1520 1524 1526 1529 1531
1456 1452 1445 1439 1436 1436 1433 1425 1420 1418 1417 1414 1412 1410 1409 1409 1410 1412 1413 1415 1417 1419 1422 1426 1429 1434 1439 1444 1449 1453 1457 1462 1469 1474 1480 1485 1490 1494 1498 1502 1505 1508 1512 1515 1518 1521 1524 1527 1529
1461 1455 1447 1437 1434 1433 1426 1419 1413 1411 1409 1407 1405 1404 1402 1403 1404 1406 1407 1409 1411 1413 1416 1420 1423 1428 1433 1437 1442 1447 1452 1457 1464 1470 1475 1481 1486 1490 1494 1498 1502 1505 1508 1512 1515 1519 1521 1524 1527
1458 1452 1443 1434 1431 1430 1422 1414 1407 1405 1403 1401 1399 1398 1398 1398 1399 1400 1401 1402 1404 1406 1410 1414 1417 1422 1426 1431 1437 1442 1448 1453 1459 1465 1471 1476 1481 1486 1490 1494 1498 1501 1505 1509 1512 1515 1518 1521 1524
1452 1448 1441 1436 1430 1425 1420 1407 1398 1395 1396 1395 1394 1393 1393 1393 1394 1395 1395 1397 1398 1401 1403 1407 1411 1416 1420 1426 1432 1438 1444 1449 1454 1459 1465 1471 1476 1481 1485 1490 1494 1498 1501 1505 1508 1512 1515 1518 1521
1448 1442 1440 1436 1433 1423 1420 1409 1392 1391 1390 1390 1389 1389 1389 1389 1390 1391 1391 1392 1393 1395 1398 1402 1406 1410 1415 1420 1426 1429 1434 1440 1446 1453 1460 1466 1471 1476 1481 1485 1490 1494 1497 1501 1504 1508 1511 1515 1517
1447 1443 1439 1433 1430 1425 1416 1414 1393 1389 1389 1388 1387 1387 1386 1386 1386 1386 1387 1387 1389 1391 1393 1397 1401 1405 1409 1414 1419 1424 1430 1436 1442 1448 1454 1460 1465 1471 1476 1480 1485 1489 1493 1497 1500 1504 1507 1511 1514
1448 1442 1432 1426 1425 1422 1408 1408 1393 1392 1392 1389 1388 1387 1385 1384 1383 1383 1384 1384 1385 1386 1389 1392 1395 1399 1404 1409 1414 1419 1424 1430 1436 1442 1447 1454 1459 1465 1470 1475 1480 1484 1488 1492 1496 1500 1503 1506 1510
1448 1443 1431 1423 1418 1408 1400 1402 1398 1397 1396 1394 1390 1388 1386 1383 1382 1381 1380 1380 1381 1383 1385 1387 1390 1394 1398 1403 1408 1414 1419 1425 1430 1435 1441 1447 1453 1458 1463 1468 1474 1478 1483 1488 1492 1495 1499 1502 1505
1448 1447 1443 1432 1415 1402 1399 1397 1397 1400 1399 1396 1392 1389 1386 1383 1381 1380 1379 1378 1379 1380 1381 1383 1385 1389 1393 1397 1403 1409 1414 1420 1425 1430 1436 1441 1446 1452 1458 1463 1468 1473 1478 1482 1487 1490 1494 1497 1500
1449 1444 1444 1442 1426 1416 1399 1396 1397 1398 1397 1396 1392 1389 1387 1385 1382 1380 1378 1377 1377 1377 1379 1380 1382 1385 1389 1393 1398 1403 1409 1415 1419 1425 1430 1436 1441 1447 1452 1458 1463 1468 1472 1477 1481 1485 1488 1492 1495
1451 1447 1445 1440 1430 1412 1400 1398 1401 1401 1399 1397 1394 1391 1388 1386 1383 1380 1378 1376 1374 1375 1375 1376 1377 1381 1385 1389 1393 1398 1403 1409 1414 1419 1424 1429 1435 1441 1446 1451 1457 1462 1466 1471 1475 1479 1483 1486 1489
1451 1449 1446 1440 1435 1425 1409 1404 1407 1407 1404 1401 1398 1394 1391 1388 1384 1381 1378 1375 1373 1372 1372 1373 1375 1378 1382 1385 1389 1393 1398 1403 1409 1414 1418 1424 1429 1435 1440 1445 1451 1456 1460 1465 1469 1473 1477 1481 1484
1451 1448 1447 1445 1437 1430 1421 1412 1408 1408 1406 1403 1400 1397 1393 1389 1386 1382 1379 1376 1373 1372 1370 1370 1372 1374 1377 1381 1384 1388 1393 1398 1402 1408 1413 1418 1424 1429 1434 1439 1444 1449 1454 1459 1463 1467 1471 1474 1478